Погода в Сарме

Россия / Иркутская область     53°06′00″N   106°50′04″E
темп.,
°C
ветер,
м/с
пор.,
м/с
влажн.,
%
обл.,
%
осадки,
мм/ч
давл.,
гПа
погр.,
м
6 марта, сб
сб623:00−19ссв469592 0.0 102994
02:00−18ссв479186 0.0 1029150
05:00−16ссв2288100 0.0 102887
08:00−16юз2295100 0.2 103062
11:00−9юз238140 0.0 1029234
14:00−6ю338247 0.0 1026452
17:00−6ююз238648 0.0 1025119
20:00−9з228447 0.0 102521
7 марта, вс
вс723:00−10сз118446 0.0 102421
02:00−11сз118223 0.0 102421
05:00−12с11854 0.0 102221
08:00−11с118623 0.0 102221
11:00−7вюв11826 0.0 1020149
14:00−5юв11797 0.0 1018183
17:00−6ю118766 0.0 101665
20:00−8з237968 0.0 101822
8 марта, пн
пн823:00−7з227599 0.0 101823
02:00−5сз227699 0.0 101932
05:00−6сз2286100 0.1 101934
08:00−7сз228779 0.1 102230
11:00−4зсз238056 0.1 1023554
14:00−3зсз367475 0.3 10251014
17:00−5зсз267387 0.1 1026726
20:00−10сз338243 0.1 102928
9 марта, вт
вт923:00−12сз33760 0.0 102922
02:00−13с227325 0.0 102721
05:00−13ссв458254 0.0 102563
08:00−12св458150 0.0 102381
11:00−9св357985 0.0 1022228
14:00−6всв228092 0.0 1021224
17:00−6ю1190100 0.0 102190
20:00−7зюз228999 0.0 102424
10 марта, ср
ср1023:00−6з238886 0.1 102634
02:00−6сз338784 0.1 102772
05:00−9сз338316 0.0 102826
08:00−10сз237923 0.0 103026
11:00−4юв11672 0.0 1027213
14:00−4всв12671 0.0 1024237
17:00−4св34724 0.0 1021128
20:00−7ссв44752 0.0 102240